Location: Mt. Bigelow
(32.4165°N, 110.7345°W)
Time: 13:05:45
(UTC-07:00)

OTV 5 (USA 277) - Visible Passes

Search period start: 22 November 2017 00:00
Search period end: 02 December 2017 00:00
Orbit: 404 x 417 km, 43.0° (Epoch: 07 September)

Date Brightness Start Highest point End Pass type
(mag) Time Alt. Az. Time Alt. Az. Time Alt. Az.
22 Nov ? 04:28:50 11° E 04:28:50 11° E 04:28:59 10° E visible
22 Nov ? 06:01:36 19° W 06:03:11 28° SW 06:06:03 10° SSE visible
23 Nov ? 05:13:16 33° SSE 05:13:16 33° SSE 05:15:23 10° SE visible
28 Nov ? 19:08:47 10° SSW 19:10:16 21° SSW 19:10:16 21° SSW visible
29 Nov ? 18:18:21 10° S 18:20:53 20° SE 18:21:56 18° ESE visible
30 Nov ? 19:03:34 10° WSW 19:06:17 55° WSW 19:06:17 55° WSW visible
01 Dec ? 18:12:34 10° SW 18:15:52 61° SE 18:17:49 22° ENE visible
